Wind_Speed
4 2 2 4 4 5 5 7 9 12 14 16 19 20 22 23 24 25 26 27 29 30 30 30 30 30 31 32 32 31 31 31 33 34 34 33 33 32 32 32 33 33 32 32
5 2 1 2 4 3 3 5 8 10 11 14 16 19 20 21 23 23 24 25 26 26 27 28 28 28 29 29 30 30 31 31 32 33 34 34 35 35 34 34 34 34 34 34
4 2 1 0 1 2 3 4 7 8 10 12 15 17 19 21 22 22 23 24 24 24 25 26 26 27 27 27 29 30 31 31 31 32 33 33 34 36 37 37 36 35 35 36
5 3 1 0 1 2 3 4 6 7 9 11 13 16 19 20 21 21 22 23 23 23 23 24 25 26 26 27 28 29 31 32 31 30 32 33 34 35 36 37 37 37 36 36
5 4 3 2 1 1 2 4 5 7 8 10 12 14 17 18 19 20 21 22 22 22 23 24 25 26 26 26 27 29 31 32 33 33 33 34 34 35 35 36 36 36 36 36
6 4 4 2 2 0 2 4 5 7 8 10 11 12 14 17 17 18 19 21 22 22 23 24 25 26 26 27 28 29 30 31 33 33 34 34 35 35 35 35 36 37 37 37
5 4 3 3 2 2 1 3 5 6 8 10 11 12 13 14 15 17 18 19 20 22 22 23 24 26 27 27 28 29 30 32 33 34 34 35 35 35 35 36 36 37 37 37
6 4 3 3 3 2 3 3 5 7 8 9 11 12 13 14 15 16 18 19 20 21 22 23 24 25 26 27 28 28 29 30 32 34 35 35 35 36 37 37 37 37 37 38
7 5 4 3 3 3 3 4 5 8 9 10 11 12 13 14 15 16 17 19 20 21 22 23 24 24 25 26 27 28 29 30 32 33 34 34 35 35 36 37 38 39 40 40
7 5 4 4 4 4 4 5 6 8 10 11 11 11 13 14 16 17 17 18 20 21 22 23 23 24 25 25 26 28 29 30 31 33 34 34 34 35 35 36 37 38 40 41
8 7 5 5 5 5 6 6 8 9 10 11 12 12 13 15 16 18 19 20 21 22 23 24 24 25 25 26 26 27 28 30 31 32 33 34 34 35 35 36 37 38 40 41
10 9 8 8 8 8 7 8 8 10 10 11 12 12 14 16 17 19 20 21 21 23 24 25 25 26 26 26 27 28 28 29 30 31 33 34 34 35 36 37 39 40 41 42
11 11 10 10 10 10 10 10 11 12 12 12 13 12 14 16 17 19 20 21 22 23 24 25 26 27 27 28 28 29 29 30 31 32 33 34 35 36 37 39 40 41 42 43
13 13 13 13 13 13 13 13 14 14 14 14 14 13 15 17 19 19 20 21 22 23 24 26 27 28 28 29 30 30 30 31 32 33 34 35 36 38 39 40 41 42 42 43
16 16 16 15 16 16 16 16 17 17 17 17 16 15 16 18 20 20 21 22 22 24 24 25 27 28 29 30 31 32 32 33 34 34 35 36 38 39 40 40 41 42 43 44
19 19 19 18 19 18 18 18 19 19 19 19 19 18 18 20 21 22 22 23 23 24 25 26 28 29 30 30 31 32 33 34 35 36 37 37 38 39 40 41 42 43 43 44
22 22 22 21 21 22 20 20 21 21 21 21 21 21 21 22 22 23 24 24 25 26 27 28 29 30 31 31 32 33 34 35 36 36 37 38 39 40 40 41 42 44 44 45
25 25 25 25 24 24 22 22 23 23 22 23 23 23 23 23 24 24 25 26 26 27 27 28 29 30 31 32 33 34 35 35 36 37 38 39 40 40 41 41 42 44 44 45
27 27 28 28 27 27 24 24 25 25 24 24 24 25 25 25 26 26 26 26 27 27 28 29 30 31 32 33 33 34 35 36 37 38 38 39 39 40 40 41 42 43 44 44
30 30 30 29 29 28 26 26 26 26 26 26 26 26 27 27 27 27 27 27 28 28 29 29 30 31 32 33 34 35 36 36 37 38 39 39 40 40 41 42 42 43 43 44
31 31 31 30 30 29 28 28 28 28 28 28 28 28 28 29 29 29 29 29 30 30 30 31 32 32 33 34 35 35 35 36 37 38 38 39 40 41 42 42 42 43 44 45
34 34 32 32 33 31 30 30 30 30 30 30 30 30 30 30 30 31 31 31 31 32 32 33 34 34 35 35 35 36 36 37 38 39 39 40 41 41 42 42 43 43 44 44
36 35 34 34 33 33 33 33 32 33 32 32 31 32 32 32 32 32 32 32 32 33 34 34 34 35 36 36 37 37 38 39 39 40 40 41 41 42 42 43 43 44 44 45
38 36 36 35 34 35 35 35 34 34 34 33 33 34 34 34 33 33 33 34 34 35 35 35 35 36 37 37 38 38 39 39 40 41 42 42 43 43 44 44 45 45 46 46
39 38 37 37 36 36 36 36 36 36 35 35 35 35 35 35 35 35 35 36 36 37 36 37 37 38 39 40 40 40 40 41 42 42 43 43 44 44 45 45 45 46 47 47
37 38 39 38 38 39 37 37 37 37 37 37 38 37 37 37 37 37 37 37 38 38 38 38 39 40 40 41 42 42 42 42 43 43 43 43 44 44 45 45 45 46 47 48
Wind_Direction
360 330 252 208 200 200 212 220 218 213 210 209 209 206 207 208 208 209 209 212 215 218 221 221 225 228 231 233 235 238 241 244 246 246 247 249 251 254 256 258 261 262 263 266
22 40 186 211 200 197 209 217 210 206 207 209 208 207 210 209 210 211 212 214 218 221 223 226 228 230 234 238 240 242 245 247 250 249 250 252 255 256 258 261 263 264 265 268
24 46 73 156 216 210 219 216 209 211 209 210 209 205 208 209 211 215 216 218 220 224 228 231 234 234 237 241 243 245 248 250 251 250 251 254 257 259 261 263 265 266 268 269
20 23 13 342 260 263 233 212 207 211 205 207 207 206 207 210 213 217 220 221 222 226 229 233 235 237 240 244 247 250 251 252 253 254 255 257 259 261 263 264 265 267 267 269
9 4 355 343 319 253 229 221 212 206 206 209 210 210 208 211 214 216 221 224 225 228 231 234 237 239 243 247 251 253 255 254 255 257 260 260 261 263 265 266 266 268 269 271
357 347 339 343 346 322 218 216 214 211 213 212 213 214 210 212 214 219 225 228 229 232 234 237 240 243 247 250 253 256 259 258 258 260 263 264 263 264 265 267 268 270 272 273
359 349 342 341 339 347 235 219 227 223 223 222 222 225 219 217 218 221 226 231 235 236 238 240 244 247 250 253 256 258 260 261 261 262 264 266 265 266 268 269 270 271 272 273
1 358 349 345 341 314 277 255 240 237 238 233 229 231 229 225 226 229 231 234 238 241 242 243 248 251 253 256 257 258 260 263 264 264 266 267 267 267 268 270 271 272 273 273
356 354 345 332 326 307 283 266 258 254 252 248 239 235 235 231 232 236 238 240 244 246 248 251 254 255 256 257 259 261 262 264 266 266 267 268 268 268 269 271 272 273 274 275
346 341 327 311 304 299 285 278 276 269 262 258 254 246 241 237 237 240 244 246 247 249 251 253 255 257 259 259 260 263 263 265 267 267 267 267 269 270 271 272 273 274 275 277
331 325 314 300 290 287 285 281 280 278 270 262 257 254 250 248 246 245 246 249 250 252 255 256 257 259 261 261 262 263 264 266 267 267 268 269 270 272 273 273 274 275 276 278
324 318 308 300 294 287 283 282 279 277 276 270 265 259 256 253 251 250 251 253 254 255 256 258 259 259 261 262 262 264 266 267 268 269 269 270 271 273 274 274 275 276 278 279
319 314 307 301 295 291 288 283 280 278 276 274 272 268 262 259 256 255 255 256 257 258 258 258 260 261 261 263 265 266 267 268 269 269 270 270 271 273 275 276 277 278 279 280
310 308 306 302 296 291 289 285 281 279 277 277 277 272 268 265 263 262 262 262 262 261 261 261 260 261 262 264 266 267 267 268 268 270 271 272 273 275 276 278 279 279 280 281
302 301 299 297 294 290 287 284 280 279 279 280 278 275 272 269 268 267 267 267 268 266 266 265 265 265 266 267 267 268 269 270 270 271 273 274 276 277 278 279 280 281 282 283
296 296 293 292 292 291 290 287 283 280 279 280 279 278 275 273 271 271 271 270 270 270 269 269 269 269 269 269 269 270 272 272 273 275 276 278 279 279 280 281 282 283 283 284
292 292 290 289 288 288 291 289 283 282 281 279 279 278 275 275 274 274 272 272 272 271 270 271 271 270 270 270 271 272 273 274 274 276 278 280 280 281 282 283 284 284 285 285
289 288 287 287 285 286 289 287 283 280 279 279 279 278 277 276 276 275 273 273 273 273 272 272 272 273 273 273 273 274 275 276 277 278 279 280 281 282 284 285 286 286 286 286
285 285 285 285 285 284 286 285 283 281 279 278 277 277 277 277 276 276 275 275 275 275 275 274 274 274 275 275 276 277 278 279 280 280 281 282 284 284 285 285 287 287 288 288
283 283 283 284 284 285 285 283 282 281 279 278 277 277 277 278 277 276 275 275 275 275 275 276 276 276 276 277 279 280 280 280 281 283 283 284 285 286 286 287 287 289 289 290
281 281 281 282 282 283 283 281 280 280 280 279 277 277 277 277 276 276 275 275 276 277 277 278 278 278 279 279 281 281 282 282 283 284 285 285 287 288 288 288 288 289 290 290
280 280 280 280 280 281 280 279 279 279 279 279 278 277 277 277 277 276 275 275 276 277 278 279 279 280 280 280 281 283 284 284 285 285 286 287 288 289 289 289 290 291 291 291
278 279 278 278 279 279 278 278 278 278 277 277 277 277 277 277 277 277 276 276 276 277 279 279 280 280 281 282 282 283 285 286 286 287 288 289 289 289 290 290 291 291 292 292
276 276 276 276 276 275 275 275 276 276 276 276 276 277 277 278 278 277 276 276 277 278 279 279 280 281 282 283 284 284 286 287 288 288 288 288 289 289 290 291 291 292 292 292
275 274 273 272 273 273 272 273 274 275 276 276 277 278 278 278 278 277 277 277 278 278 279 279 280 281 283 284 285 286 287 288 289 289 289 288 289 289 290 291 292 292 293 292
274 273 272 272 272 272 272 273 273 273 274 276 277 278 277 277 277 277 278 278 278 279 279 280 281 282 283 284 286 286 287 289 289 290 290 290 290 290 291 292 292 293 294 294
Height
5698 5698 5697 5698 5698 5700 5700 5702 5703 5706 5708 5710 5713 5717 5721 5725 5729 5733 5737 5741 5745 5749 5753 5757 5761 5764 5767 5770 5773 5774 5776 5778 5780 5781 5782 5783 5785 5787 5788 5788 5788 5788 5788 5789
5701 5700 5699 5699 5700 5700 5701 5702 5704 5706 5708 5710 5713 5716 5719 5723 5727 5731 5735 5738 5742 5746 5750 5753 5757 5759 5762 5765 5767 5769 5770 5772 5773 5774 5775 5776 5778 5779 5780 5780 5780 5781 5781 5781
5702 5702 5701 5701 5701 5702 5702 5703 5705 5706 5708 5710 5713 5715 5718 5721 5724 5728 5732 5735 5739 5743 5746 5749 5752 5755 5757 5759 5761 5763 5764 5766 5767 5767 5769 5770 5770 5771 5772 5773 5773 5773 5773 5773
5704 5703 5703 5703 5703 5703 5703 5704 5705 5707 5708 5710 5712 5714 5717 5720 5723 5726 5730 5733 5736 5739 5742 5745 5747 5750 5752 5754 5755 5757 5758 5759 5760 5760 5762 5762 5763 5764 5765 5765 5765 5765 5765 5765
5705 5705 5704 5704 5704 5704 5704 5705 5706 5707 5708 5710 5712 5714 5717 5719 5721 5725 5728 5730 5733 5736 5738 5740 5743 5745 5747 5748 5749 5750 5751 5752 5752 5753 5754 5755 5756 5756 5757 5757 5757 5756 5757 5756
5707 5706 5705 5705 5705 5705 5705 5706 5707 5707 5708 5710 5712 5713 5716 5718 5720 5723 5726 5728 5730 5732 5734 5736 5738 5740 5741 5742 5743 5744 5744 5744 5745 5746 5747 5748 5748 5749 5749 5749 5749 5748 5748 5748
5708 5707 5706 5706 5706 5706 5706 5707 5707 5707 5708 5710 5711 5712 5715 5716 5718 5720 5722 5724 5726 5728 5730 5732 5733 5735 5736 5737 5737 5738 5738 5738 5738 5739 5740 5740 5740 5741 5741 5740 5740 5740 5740 5739
5708 5708 5707 5706 5706 5706 5706 5707 5708 5708 5708 5709 5710 5711 5714 5715 5716 5717 5719 5721 5723 5724 5726 5727 5728 5729 5730 5730 5731 5731 5731 5732 5732 5732 5732 5733 5733 5733 5733 5732 5732 5731 5731 5730
5709 5708 5707 5707 5706 5706 5706 5706 5707 5707 5707 5708 5709 5710 5712 5712 5713 5714 5716 5717 5719 5720 5721 5722 5723 5723 5724 5724 5724 5725 5725 5725 5725 5725 5725 5725 5725 5724 5724 5724 5723 5723 5722 5721
5709 5708 5708 5707 5706 5706 5706 5706 5706 5706 5706 5706 5707 5708 5709 5709 5710 5712 5713 5713 5714 5715 5716 5716 5717 5718 5718 5718 5718 5718 5718 5717 5717 5717 5717 5717 5716 5716 5715 5715 5714 5713 5713 5711
5708 5708 5708 5706 5706 5705 5706 5705 5704 5704 5704 5704 5704 5707 5706 5706 5707 5707 5708 5708 5709 5710 5710 5711 5711 5711 5711 5711 5711 5711 5711 5710 5710 5709 5709 5708 5708 5707 5707 5706 5705 5704 5703 5702
5708 5707 5706 5706 5705 5704 5703 5703 5703 5703 5702 5701 5701 5706 5702 5702 5702 5702 5703 5703 5704 5704 5704 5705 5705 5705 5705 5704 5704 5704 5703 5703 5702 5701 5701 5700 5700 5699 5698 5697 5695 5694 5693 5691
5707 5706 5705 5704 5705 5703 5702 5701 5700 5700 5699 5699 5699 5702 5698 5697 5697 5697 5698 5698 5698 5698 5698 5698 5698 5698 5698 5698 5697 5697 5696 5695 5695 5694 5692 5692 5690 5689 5688 5687 5685 5684 5682 5680
5704 5704 5704 5703 5701 5699 5699 5698 5697 5696 5695 5695 5695 5695 5694 5693 5692 5692 5692 5692 5692 5692 5692 5692 5692 5691 5691 5691 5690 5689 5688 5687 5686 5685 5684 5683 5681 5680 5678 5677 5675 5673 5671 5669
5701 5701 5700 5699 5697 5696 5695 5694 5693 5692 5691 5691 5691 5690 5689 5688 5687 5687 5687 5686 5686 5686 5685 5685 5684 5684 5683 5683 5682 5681 5680 5679 5677 5676 5675 5673 5672 5670 5668 5666 5664 5662 5660 5658
5697 5696 5695 5695 5693 5692 5691 5690 5688 5687 5686 5685 5685 5685 5684 5682 5681 5681 5680 5680 5679 5679 5678 5677 5676 5676 5675 5674 5673 5672 5671 5670 5668 5667 5665 5664 5662 5660 5658 5656 5653 5651 5648 5646
5691 5690 5689 5689 5688 5686 5687 5685 5683 5682 5681 5680 5679 5679 5677 5676 5675 5675 5674 5673 5672 5671 5670 5670 5669 5668 5666 5665 5664 5663 5662 5660 5659 5657 5655 5653 5651 5649 5647 5644 5642 5639 5637 5634
5685 5684 5682 5682 5682 5680 5683 5679 5677 5676 5675 5674 5672 5672 5671 5670 5669 5668 5666 5665 5664 5663 5662 5661 5660 5659 5658 5656 5655 5653 5652 5650 5649 5647 5645 5643 5640 5638 5636 5633 5630 5628 5625 5622
5678 5676 5675 5674 5673 5673 5674 5672 5669 5668 5668 5667 5665 5664 5663 5662 5661 5660 5659 5657 5656 5655 5654 5653 5651 5650 5649 5647 5645 5644 5642 5640 5638 5636 5634 5632 5629 5627 5624 5622 5619 5616 5613 5610
5670 5668 5668 5666 5664 5664 5667 5664 5661 5661 5660 5659 5657 5656 5655 5654 5653 5653 5650 5649 5648 5646 5645 5644 5642 5641 5639 5637 5636 5634 5632 5630 5628 5625 5623 5621 5618 5616 5613 5610 5607 5604 5601 5597
5661 5660 5659 5657 5655 5656 5657 5655 5653 5653 5653 5651 5648 5647 5646 5645 5644 5643 5641 5640 5639 5637 5636 5634 5633 5631 5629 5628 5626 5624 5621 5619 5617 5615 5612 5609 5607 5604 5601 5598 5594 5591 5588 5585
5651 5650 5650 5648 5647 5649 5647 5645 5644 5644 5642 5640 5639 5638 5637 5635 5634 5633 5632 5631 5629 5628 5626 5625 5623 5621 5619 5618 5616 5613 5611 5609 5606 5604 5601 5598 5595 5592 5589 5585 5582 5579 5575 5572
5641 5641 5639 5639 5640 5638 5636 5634 5634 5633 5632 5631 5629 5628 5627 5626 5625 5623 5622 5621 5619 5618 5616 5614 5613 5611 5609 5607 5605 5603 5600 5598 5595 5592 5589 5586 5583 5579 5576 5573 5570 5566 5562 5559
5630 5629 5628 5628 5628 5626 5625 5624 5623 5622 5621 5620 5619 5618 5617 5616 5614 5613 5612 5610 5609 5607 5606 5604 5602 5600 5598 5596 5594 5592 5589 5587 5584 5580 5577 5574 5570 5567 5564 5560 5557 5553 5549 5545
5619 5617 5616 5616 5616 5614 5614 5612 5612 5611 5610 5609 5608 5607 5606 5605 5604 5602 5601 5599 5598 5596 5595 5593 5591 5589 5587 5585 5583 5580 5578 5575 5572 5568 5565 5561 5558 5554 5551 5547 5543 5540 5536 5531
5608 5605 5604 5604 5604 5602 5603 5602 5601 5600 5599 5598 5597 5596 5595 5593 5592 5591 5589 5588 5587 5585 5583 5581 5580 5577 5575 5573 5571 5568 5565 5562 5559 5556 5552 5549 5545 5541 5538 5534 5531 5526 5522 5517